Time,TemperatureF,DewpointF,PressureIn,WindDirection,WindDirectionDegrees,WindSpeedMPH,WindSpeedGustMPH,Humidity,HourlyPrecipIn,Conditions,Clouds,dailyrainin,SoftwareType,DateUTC
2013-05-08 00:01:00,62.4,46.9,-100.00,NW,309,0.0,0.0,57,0.00,,,0.00,meteohub,2013-05-08 05:01:00,
2013-05-08 00:06:00,62.6,47.1,-100.00,NW,309,0.0,0.0,57,0.00,,,0.00,meteohub,2013-05-08 05:06:00,
2013-05-08 00:11:00,62.4,47.8,-100.00,NW,309,0.0,0.0,59,0.00,,,0.00,meteohub,2013-05-08 05:11:00,
2013-05-08 00:16:00,62.2,47.7,-100.00,NW,309,0.0,1.0,59,0.00,,,0.00,meteohub,2013-05-08 05:16:00,
2013-05-08 00:21:00,61.9,47.8,-100.00,NW,309,0.0,1.0,60,0.00,,,0.00,meteohub,2013-05-08 05:21:00,
2013-05-08 00:26:00,61.2,47.7,-100.00,NW,309,0.0,1.0,61,0.00,,,0.00,meteohub,2013-05-08 05:26:00,
2013-05-08 00:31:00,60.8,47.7,-100.00,NW,309,0.0,0.0,62,0.00,,,0.00,meteohub,2013-05-08 05:31:00,
2013-05-08 00:36:00,60.6,47.5,-100.00,NW,309,0.0,0.0,62,0.00,,,0.00,meteohub,2013-05-08 05:36:00,
2013-05-08 00:41:00,60.6,48.0,-100.00,NW,309,0.0,0.0,63,0.00,,,0.00,meteohub,2013-05-08 05:41:00,
2013-05-08 00:47:00,60.4,47.8,-100.00,NW,309,0.0,0.0,63,0.00,,,0.00,meteohub,2013-05-08 05:47:00,
2013-05-08 00:52:00,60.4,47.8,-100.00,NW,309,0.0,0.0,63,0.00,,,0.00,meteohub,2013-05-08 05:52:00,
2013-05-08 00:57:00,60.3,47.7,-100.00,NW,309,0.0,0.0,63,0.00,,,0.00,meteohub,2013-05-08 05:57:00,
2013-05-08 01:02:00,60.4,47.3,-100.00,NW,309,0.0,0.0,62,0.00,,,0.00,meteohub,2013-05-08 06:02:00,
2013-05-08 01:07:00,60.8,47.3,-100.00,NW,309,0.0,0.0,61,0.00,,,0.00,meteohub,2013-05-08 06:07:00,
2013-05-08 01:12:00,60.8,47.7,-100.00,NW,309,0.0,0.0,62,0.00,,,0.00,meteohub,2013-05-08 06:12:00,
2013-05-08 01:17:00,60.6,47.1,-100.00,NW,309,0.0,0.0,61,0.00,,,0.00,meteohub,2013-05-08 06:17:00,
2013-05-08 01:22:00,60.3,46.4,-100.00,NW,309,0.0,0.0,60,0.00,,,0.00,meteohub,2013-05-08 06:22:00,
2013-05-08 01:27:00,60.1,46.6,-100.00,NW,309,0.0,0.0,61,0.00,,,0.00,meteohub,2013-05-08 06:27:00,
2013-05-08 01:32:00,59.7,46.2,-100.00,NW,309,0.0,0.0,61,0.00,,,0.00,meteohub,2013-05-08 06:32:00,
2013-05-08 01:37:00,59.5,46.0,-100.00,NW,309,0.0,0.0,61,0.00,,,0.00,meteohub,2013-05-08 06:37:00,
2013-05-08 01:42:00,59.5,46.0,-100.00,NW,309,0.0,0.0,61,0.00,,,0.00,meteohub,2013-05-08 06:42:00,
2013-05-08 01:47:00,59.7,46.8,-100.00,NW,309,0.0,0.0,62,0.00,,,0.00,meteohub,2013-05-08 06:47:00,
2013-05-08 01:52:00,59.5,46.6,-100.00,NW,309,0.0,0.0,62,0.00,,,0.00,meteohub,2013-05-08 06:52:00,
2013-05-08 01:57:00,59.4,46.4,-100.00,NW,309,0.0,0.0,62,0.00,,,0.00,meteohub,2013-05-08 06:57:00,
2013-05-08 02:02:00,59.0,46.4,-100.00,NW,309,0.0,0.0,63,0.00,,,0.00,meteohub,2013-05-08 07:02:00,
2013-05-08 02:07:00,59.0,46.8,-100.00,NW,309,0.0,0.0,64,0.00,,,0.00,meteohub,2013-05-08 07:07:00,
2013-05-08 02:12:00,58.5,46.4,-100.00,NW,309,0.0,0.0,64,0.00,,,0.00,meteohub,2013-05-08 07:12:00,
2013-05-08 02:17:00,58.3,46.6,-100.00,NW,309,0.0,0.0,65,0.00,,,0.00,meteohub,2013-05-08 07:17:00,
2013-05-08 02:22:00,57.9,46.6,-100.00,NW,309,0.0,0.0,66,0.00,,,0.00,meteohub,2013-05-08 07:22:00,
2013-05-08 02:27:00,57.7,46.9,-100.00,NW,309,0.0,0.0,67,0.00,,,0.00,meteohub,2013-05-08 07:27:00,
2013-05-08 02:28:00,57.7,46.9,-100.00,NW,309,0.0,0.0,67,0.00,,,0.00,meteohub,2013-05-08 07:28:00,
2013-05-08 02:33:00,57.6,46.8,-100.00,NW,309,0.0,0.0,67,0.00,,,0.00,meteohub,2013-05-08 07:33:00,
2013-05-08 02:38:00,57.6,47.1,-100.00,NW,309,0.0,0.0,68,0.00,,,0.00,meteohub,2013-05-08 07:38:00,
2013-05-08 02:43:00,57.6,47.1,-100.00,NW,309,0.0,0.0,68,0.00,,,0.00,meteohub,2013-05-08 07:43:00,
2013-05-08 02:48:00,57.6,47.5,-100.00,NW,309,0.0,0.0,69,0.00,,,0.00,meteohub,2013-05-08 07:48:00,
2013-05-08 02:53:00,57.4,47.3,-100.00,NW,309,0.0,0.0,69,0.00,,,0.00,meteohub,2013-05-08 07:53:00,
2013-05-08 02:58:00,57.2,47.5,-100.00,NW,309,0.0,0.0,70,0.00,,,0.00,meteohub,2013-05-08 07:58:00,
2013-05-08 03:03:00,57.0,47.7,-100.00,NW,309,0.0,0.0,71,0.00,,,0.00,meteohub,2013-05-08 08:03:00,
2013-05-08 03:08:00,56.8,47.5,-100.00,NW,309,0.0,0.0,71,0.00,,,0.00,meteohub,2013-05-08 08:08:00,
2013-05-08 03:13:00,56.7,47.3,-100.00,NW,309,0.0,0.0,71,0.00,,,0.00,meteohub,2013-05-08 08:13:00,
2013-05-08 03:18:00,56.7,47.7,-100.00,NW,309,0.0,0.0,72,0.00,,,0.00,meteohub,2013-05-08 08:18:00,
2013-05-08 03:23:00,56.5,47.5,-100.00,NW,309,0.0,0.0,72,0.00,,,0.00,meteohub,2013-05-08 08:23:00,
2013-05-08 03:28:00,56.7,48.0,-100.00,NW,309,0.0,0.0,73,0.00,,,0.00,meteohub,2013-05-08 08:28:00,
2013-05-08 03:33:00,56.8,47.8,-100.00,NW,309,0.0,1.0,72,0.00,,,0.00,meteohub,2013-05-08 08:33:00,
2013-05-08 03:38:00,57.0,48.0,-100.00,NW,309,0.0,1.0,72,0.00,,,0.00,meteohub,2013-05-08 08:38:00,
2013-05-08 03:43:00,57.4,48.4,-100.00,NW,309,0.0,1.0,72,0.00,,,0.00,meteohub,2013-05-08 08:43:00,
2013-05-08 03:48:00,57.2,47.8,-100.00,NW,309,0.0,0.0,71,0.00,,,0.00,meteohub,2013-05-08 08:48:00,
2013-05-08 03:53:00,57.0,48.0,-100.00,NW,309,0.0,0.0,72,0.00,,,0.00,meteohub,2013-05-08 08:53:00,
2013-05-08 03:58:00,57.2,48.2,-100.00,NW,309,0.0,0.0,72,0.00,,,0.00,meteohub,2013-05-08 08:58:00,
2013-05-08 04:03:00,57.0,48.0,-100.00,NW,309,0.0,0.0,72,0.00,,,0.00,meteohub,2013-05-08 09:03:00,
2013-05-08 04:09:00,56.8,48.2,-100.00,NW,309,0.0,0.0,73,0.00,,,0.00,meteohub,2013-05-08 09:09:00,
2013-05-08 04:14:00,56.5,48.0,-100.00,NW,309,0.0,0.0,73,0.00,,,0.00,meteohub,2013-05-08 09:14:00,
2013-05-08 04:19:00,55.9,47.8,-100.00,NW,309,0.0,0.0,74,0.00,,,0.00,meteohub,2013-05-08 09:19:00,
2013-05-08 04:24:00,55.6,47.8,-100.00,NW,309,0.0,0.0,75,0.00,,,0.00,meteohub,2013-05-08 09:24:00,
2013-05-08 04:29:00,55.2,47.8,-100.00,NW,309,0.0,0.0,76,0.00,,,0.00,meteohub,2013-05-08 09:29:00,
2013-05-08 04:34:00,55.0,47.7,-100.00,NW,309,0.0,0.0,76,0.00,,,0.00,meteohub,2013-05-08 09:34:00,
2013-05-08 04:39:00,55.0,48.0,-100.00,NW,309,0.0,0.0,77,0.00,,,0.00,meteohub,2013-05-08 09:39:00,
2013-05-08 04:44:00,55.2,48.6,-100.00,NW,309,0.0,0.0,78,0.00,,,0.00,meteohub,2013-05-08 09:44:00,
2013-05-08 04:49:00,55.2,48.6,-100.00,NW,309,0.0,0.0,78,0.00,,,0.00,meteohub,2013-05-08 09:49:00,
2013-05-08 04:54:00,55.2,48.6,-100.00,NW,309,0.0,0.0,78,0.00,,,0.00,meteohub,2013-05-08 09:54:00,
2013-05-08 04:59:00,55.0,48.4,-100.00,NW,309,0.0,0.0,78,0.00,,,0.00,meteohub,2013-05-08 09:59:00,
2013-05-08 05:04:00,54.9,48.2,-100.00,NW,309,0.0,0.0,78,0.00,,,0.00,meteohub,2013-05-08 10:04:00,
2013-05-08 05:09:00,54.9,48.2,-100.00,NW,309,0.0,0.0,78,0.00,,,0.00,meteohub,2013-05-08 10:09:00,
2013-05-08 05:14:00,54.5,48.2,-100.00,NW,309,0.0,0.0,79,0.00,,,0.00,meteohub,2013-05-08 10:14:00,
2013-05-08 05:19:00,54.5,48.2,-100.00,NW,309,0.0,0.0,79,0.00,,,0.00,meteohub,2013-05-08 10:19:00,
2013-05-08 05:24:00,54.3,48.2,-100.00,NW,309,0.0,0.0,80,0.00,,,0.00,meteohub,2013-05-08 10:24:00,
2013-05-08 05:29:00,54.3,48.2,-100.00,NW,309,0.0,0.0,80,0.00,,,0.00,meteohub,2013-05-08 10:29:00,
2013-05-08 05:34:00,54.1,48.0,-100.00,NW,309,0.0,0.0,80,0.00,,,0.00,meteohub,2013-05-08 10:34:00,
2013-05-08 05:39:00,54.1,48.4,-100.00,NW,309,0.0,0.0,81,0.00,,,0.00,meteohub,2013-05-08 10:39:00,
2013-05-08 05:44:00,54.1,48.4,-100.00,NW,309,0.0,0.0,81,0.00,,,0.00,meteohub,2013-05-08 10:44:00,
2013-05-08 05:49:00,54.1,48.4,-100.00,NW,309,0.0,0.0,81,0.00,,,0.00,meteohub,2013-05-08 10:49:00,
2013-05-08 05:54:00,54.3,48.6,-100.00,NW,309,0.0,0.0,81,0.00,,,0.00,meteohub,2013-05-08 10:54:00,
2013-05-08 05:59:00,54.9,49.1,-100.00,NW,309,0.0,0.0,81,0.00,,,0.00,meteohub,2013-05-08 10:59:00,
2013-05-08 06:04:00,55.0,49.3,-100.00,NW,309,0.0,0.0,81,0.00,,,0.00,meteohub,2013-05-08 11:04:00,
2013-05-08 06:09:00,55.0,48.9,-100.00,NW,309,0.0,0.0,80,0.00,,,0.00,meteohub,2013-05-08 11:09:00,
2013-05-08 06:14:00,55.0,48.9,-100.00,NW,309,0.0,0.0,80,0.00,,,0.00,meteohub,2013-05-08 11:14:00,
2013-05-08 06:19:00,54.9,48.7,-100.00,NW,309,0.0,0.0,80,0.00,,,0.00,meteohub,2013-05-08 11:19:00,
2013-05-08 06:24:00,54.9,48.7,-100.00,NW,309,0.0,0.0,80,0.00,,,0.00,meteohub,2013-05-08 11:24:00,
2013-05-08 06:29:00,54.9,49.1,-100.00,NW,309,0.0,0.0,81,0.00,,,0.00,meteohub,2013-05-08 11:29:00,
2013-05-08 06:34:00,55.0,49.3,-100.00,NW,309,0.0,0.0,81,0.00,,,0.00,meteohub,2013-05-08 11:34:00,
2013-05-08 06:39:00,55.8,50.4,-100.00,NW,309,0.0,0.0,82,0.00,,,0.00,meteohub,2013-05-08 11:39:00,
2013-05-08 06:44:00,56.5,50.7,-100.00,NW,309,0.0,0.0,81,0.00,,,0.00,meteohub,2013-05-08 11:44:00,
2013-05-08 06:49:00,57.6,51.4,-100.00,NW,309,0.0,0.0,80,0.00,,,0.00,meteohub,2013-05-08 11:49:00,
2013-05-08 06:54:00,58.6,51.8,-100.00,NW,309,0.0,0.0,78,0.00,,,0.00,meteohub,2013-05-08 11:54:00,
2013-05-08 06:59:00,59.4,52.2,-100.00,NW,309,0.0,0.0,77,0.00,,,0.00,meteohub,2013-05-08 11:59:00,
2013-05-08 07:04:00,60.3,52.7,-100.00,NW,309,0.0,0.0,76,0.00,,,0.00,meteohub,2013-05-08 12:04:00,
2013-05-08 07:09:00,61.3,53.4,-100.00,NW,309,0.0,0.0,75,0.00,,,0.00,meteohub,2013-05-08 12:09:00,
2013-05-08 07:14:00,62.2,53.4,-100.00,NW,309,0.0,0.0,73,0.00,,,0.00,meteohub,2013-05-08 12:14:00,
2013-05-08 07:19:00,63.1,54.0,-100.00,NW,309,0.0,0.0,72,0.00,,,0.00,meteohub,2013-05-08 12:19:00,
2013-05-08 07:24:00,63.7,54.1,-100.00,NW,309,0.0,0.0,71,0.00,,,0.00,meteohub,2013-05-08 12:24:00,
2013-05-08 07:29:00,63.3,54.1,-100.00,NW,309,0.0,0.0,72,0.00,,,0.00,meteohub,2013-05-08 12:29:00,
2013-05-08 07:34:00,63.7,54.1,-100.00,NW,308,0.0,0.0,71,0.00,,,0.00,meteohub,2013-05-08 12:34:00,
2013-05-08 07:39:00,63.7,53.8,-100.00,NW,307,0.0,0.0,70,0.00,,,0.00,meteohub,2013-05-08 12:39:00,
2013-05-08 07:44:00,64.2,54.3,-100.00,NW,308,0.0,0.0,70,0.00,,,0.00,meteohub,2013-05-08 12:44:00,
2013-05-08 07:49:00,64.8,53.6,-100.00,NW,308,0.0,0.0,67,0.00,,,0.00,meteohub,2013-05-08 12:49:00,
2013-05-08 07:55:00,65.5,53.8,-100.00,NW,308,0.0,0.0,66,0.00,,,0.00,meteohub,2013-05-08 12:55:00,
2013-05-08 08:00:00,66.0,54.0,-100.00,NW,308,0.0,0.0,65,0.00,,,0.00,meteohub,2013-05-08 13:00:00,
2013-05-08 08:05:00,66.9,54.9,-100.00,NW,307,0.0,0.0,65,0.00,,,0.00,meteohub,2013-05-08 13:05:00,
2013-05-08 08:10:00,67.6,54.7,-100.00,NW,308,0.0,0.0,63,0.00,,,0.00,meteohub,2013-05-08 13:10:00,
2013-05-08 08:15:00,68.2,55.6,-100.00,NW,307,0.0,0.0,64,0.00,,,0.00,meteohub,2013-05-08 13:15:00,
2013-05-08 08:20:00,68.7,56.5,-100.00,NW,308,0.0,0.0,65,0.00,,,0.00,meteohub,2013-05-08 13:20:00,
2013-05-08 08:25:00,69.1,55.9,-100.00,NW,307,0.0,0.0,63,0.00,,,0.00,meteohub,2013-05-08 13:25:00,
2013-05-08 08:30:00,68.9,56.3,-100.00,NW,308,0.0,0.0,64,0.00,,,0.00,meteohub,2013-05-08 13:30:00,
2013-05-08 08:35:00,69.3,56.1,-100.00,NW,308,0.0,0.0,63,0.00,,,0.00,meteohub,2013-05-08 13:35:00,
2013-05-08 08:40:00,70.0,55.4,-100.00,NW,306,0.0,0.0,60,0.00,,,0.00,meteohub,2013-05-08 13:40:00,
2013-05-08 08:45:00,71.8,56.7,-100.00,WNW,287,0.0,0.0,59,0.00,,,0.00,meteohub,2013-05-08 13:45:00,
2013-05-08 08:50:00,73.0,57.4,-100.00,WNW,284,0.0,0.0,58,0.00,,,0.00,meteohub,2013-05-08 13:50:00,
2013-05-08 08:55:00,73.9,57.2,-100.00,WNW,284,0.0,0.0,56,0.00,,,0.00,meteohub,2013-05-08 13:55:00,
2013-05-08 09:00:00,74.8,56.5,-100.00,SW,219,0.0,6.0,53,0.00,,,0.00,meteohub,2013-05-08 14:00:00,
2013-05-08 09:05:00,75.9,56.5,-100.00,SW,218,0.0,6.0,51,0.00,,,0.00,meteohub,2013-05-08 14:05:00,
2013-05-08 09:10:00,75.9,57.0,-100.00,SW,218,0.0,6.0,52,0.00,,,0.00,meteohub,2013-05-08 14:10:00,
2013-05-08 09:15:00,77.2,56.5,-100.00,SW,218,0.0,2.0,49,0.00,,,0.00,meteohub,2013-05-08 14:15:00,
2013-05-08 09:20:00,78.4,57.2,-100.00,SW,218,0.0,2.0,48,0.00,,,0.00,meteohub,2013-05-08 14:20:00,
2013-05-08 09:25:00,78.6,57.2,-100.00,SW,218,0.0,2.0,48,0.00,,,0.00,meteohub,2013-05-08 14:25:00,
2013-05-08 09:30:00,79.0,57.0,-100.00,SW,218,0.0,2.0,47,0.00,,,0.00,meteohub,2013-05-08 14:30:00,
2013-05-08 09:35:00,79.9,57.2,-100.00,SW,218,0.0,2.0,46,0.00,,,0.00,meteohub,2013-05-08 14:35:00,
2013-05-08 09:40:00,80.2,58.1,-100.00,SSW,207,0.0,5.0,47,0.00,,,0.00,meteohub,2013-05-08 14:40:00,
2013-05-08 09:45:00,79.9,57.9,-100.00,SSW,207,0.0,5.0,47,0.00,,,0.00,meteohub,2013-05-08 14:45:00,
2013-05-08 09:50:00,80.1,58.1,-100.00,SSW,207,0.0,5.0,47,0.00,,,0.00,meteohub,2013-05-08 14:50:00,
2013-05-08 09:55:00,80.4,58.3,-100.00,SSW,207,0.0,4.0,47,0.00,,,0.00,meteohub,2013-05-08 14:55:00,
2013-05-08 10:00:00,81.0,57.6,-100.00,SSW,207,0.0,4.0,45,0.00,,,0.00,meteohub,2013-05-08 15:00:00,
2013-05-08 10:05:00,81.7,57.6,-100.00,SSW,207,0.0,5.0,44,0.00,,,0.00,meteohub,2013-05-08 15:05:00,
2013-05-08 10:10:00,82.6,59.0,-100.00,SSW,203,0.0,5.0,45,0.00,,,0.00,meteohub,2013-05-08 15:10:00,
2013-05-08 10:15:00,82.4,59.0,-100.00,SSW,198,0.0,4.0,45,0.00,,,0.00,meteohub,2013-05-08 15:15:00,
2013-05-08 10:20:00,81.1,58.5,-100.00,SSW,196,0.0,2.0,46,0.00,,,0.00,meteohub,2013-05-08 15:20:00,
2013-05-08 10:25:00,80.4,57.7,-100.00,ESE,118,0.0,4.0,46,0.00,,,0.00,meteohub,2013-05-08 15:25:00,
2013-05-08 10:30:00,80.1,57.4,-100.00,SSE,150,0.0,4.0,46,0.00,,,0.00,meteohub,2013-05-08 15:30:00,
2013-05-08 10:32:00,79.9,56.7,-100.00,SSE,150,0.0,4.0,45,0.00,,,0.00,meteohub,2013-05-08 15:32:00,
2013-05-08 10:37:00,79.9,56.7,-100.00,SSE,149,0.0,4.0,45,0.00,,,0.00,meteohub,2013-05-08 15:37:00,
2013-05-08 10:42:00,80.4,56.5,-100.00,South,186,0.0,4.0,44,0.00,,,0.00,meteohub,2013-05-08 15:42:00,
2013-05-08 10:47:00,82.0,56.7,-100.00,South,186,0.0,5.0,42,0.00,,,0.00,meteohub,2013-05-08 15:47:00,
2013-05-08 10:52:00,83.8,57.0,-100.00,SE,145,2.0,5.0,40,0.00,,,0.00,meteohub,2013-05-08 15:52:00,
2013-05-08 10:57:00,83.5,57.9,-100.00,SSE,167,0.0,7.0,42,0.00,,,0.00,meteohub,2013-05-08 15:57:00,
2013-05-08 11:02:00,84.6,56.1,-100.00,South,179,0.0,7.0,38,0.00,,,0.00,meteohub,2013-05-08 16:02:00,
2013-05-08 11:08:00,84.6,56.1,-100.00,SW,230,0.0,7.0,38,0.00,,,0.00,meteohub,2013-05-08 16:08:00,
2013-05-08 11:13:00,84.6,57.6,-100.00,SSE,153,0.0,10.0,40,0.00,,,0.00,meteohub,2013-05-08 16:13:00,
2013-05-08 11:18:00,83.5,54.5,-100.00,SSW,205,4.0,10.0,37,0.00,,,0.00,meteohub,2013-05-08 16:18:00,
2013-05-08 11:23:00,82.8,54.5,-100.00,SSW,205,0.0,10.0,38,0.00,,,0.00,meteohub,2013-05-08 16:23:00,
2013-05-08 11:28:00,82.9,55.4,-100.00,SE,144,0.0,9.0,39,0.00,,,0.00,meteohub,2013-05-08 16:28:00,
2013-05-08 11:33:00,82.0,55.4,-100.00,South,186,0.0,9.0,40,0.00,,,0.00,meteohub,2013-05-08 16:33:00,
2013-05-08 11:38:00,81.9,55.2,-100.00,SW,233,4.0,5.0,40,0.00,,,0.00,meteohub,2013-05-08 16:38:00,
2013-05-08 11:43:00,82.8,55.9,-100.00,SW,225,0.0,6.0,40,0.00,,,0.00,meteohub,2013-05-08 16:43:00,
2013-05-08 11:48:00,82.4,52.7,-100.00,South,182,0.0,6.0,36,0.00,,,0.00,meteohub,2013-05-08 16:48:00,
2013-05-08 11:53:00,82.0,54.0,-100.00,South,180,0.0,6.0,38,0.00,,,0.00,meteohub,2013-05-08 16:53:00,
2013-05-08 11:58:00,82.2,54.1,-100.00,South,184,6.0,6.0,38,0.00,,,0.00,meteohub,2013-05-08 16:58:00,
2013-05-08 12:03:00,82.2,54.1,-100.00,SSW,205,4.0,8.0,38,0.00,,,0.00,meteohub,2013-05-08 17:03:00,
2013-05-08 12:08:00,82.2,54.9,-100.00,South,174,0.0,8.0,39,0.00,,,0.00,meteohub,2013-05-08 17:08:00,
2013-05-08 12:13:00,82.8,57.4,-100.00,SSE,149,1.0,8.0,42,0.00,,,0.00,meteohub,2013-05-08 17:13:00,
2013-05-08 12:18:00,82.8,53.8,-100.00,SSE,155,0.0,8.0,37,0.00,,,0.00,meteohub,2013-05-08 17:18:00,
2013-05-08 12:23:00,82.0,54.0,-100.00,SE,126,0.0,7.0,38,0.00,,,0.00,meteohub,2013-05-08 17:23:00,
2013-05-08 12:28:00,82.2,54.9,-100.00,SE,126,3.0,7.0,39,0.00,,,0.00,meteohub,2013-05-08 17:28:00,
2013-05-08 12:33:00,82.2,54.9,-100.00,SE,126,0.0,7.0,39,0.00,,,0.00,meteohub,2013-05-08 17:33:00,
2013-05-08 12:38:00,83.5,55.9,-100.00,South,185,0.0,7.0,39,0.00,,,0.00,meteohub,2013-05-08 17:38:00,
2013-05-08 12:43:00,84.7,55.6,-100.00,SSW,203,4.0,6.0,37,0.00,,,0.00,meteohub,2013-05-08 17:43:00,
2013-05-08 12:48:00,83.7,55.4,-100.00,SSE,154,0.0,11.0,38,0.00,,,0.00,meteohub,2013-05-08 17:48:00,
2013-05-08 12:53:00,82.8,55.2,-100.00,South,172,1.0,11.0,39,0.00,,,0.00,meteohub,2013-05-08 17:53:00,
2013-05-08 12:58:00,82.9,55.4,-100.00,South,172,1.0,11.0,39,0.00,,,0.00,meteohub,2013-05-08 17:58:00,
2013-05-08 13:03:00,82.9,55.4,-100.00,SW,219,6.0,7.0,39,0.00,,,0.00,meteohub,2013-05-08 18:03:00,
2013-05-08 13:08:00,82.9,54.7,-100.00,SSE,150,0.0,10.0,38,0.00,,,0.00,meteohub,2013-05-08 18:08:00,
2013-05-08 13:13:00,84.0,54.1,-100.00,South,175,0.0,10.0,36,0.00,,,0.00,meteohub,2013-05-08 18:13:00,
2013-05-08 13:18:00,84.9,55.8,-100.00,SSE,150,5.0,10.0,37,0.00,,,0.00,meteohub,2013-05-08 18:18:00,
2013-05-08 13:23:00,84.4,55.9,-100.00,South,187,5.0,5.0,38,0.00,,,0.00,meteohub,2013-05-08 18:23:00,
2013-05-08 13:28:00,83.5,55.2,-100.00,South,182,0.0,9.0,38,0.00,,,0.00,meteohub,2013-05-08 18:28:00,
2013-05-08 13:33:00,82.9,55.4,-100.00,SE,125,0.0,9.0,39,0.00,,,0.00,meteohub,2013-05-08 18:33:00,
2013-05-08 13:38:00,82.6,55.0,-100.00,SSE,157,0.0,9.0,39,0.00,,,0.00,meteohub,2013-05-08 18:38:00,
2013-05-08 13:43:00,82.4,54.3,-100.00,South,175,0.0,5.0,38,0.00,,,0.00,meteohub,2013-05-08 18:43:00,
2013-05-08 13:48:00,82.2,54.9,-100.00,SSW,209,0.0,9.0,39,0.00,,,0.00,meteohub,2013-05-08 18:48:00,
2013-05-08 13:53:00,83.1,54.9,-100.00,SSW,213,1.0,9.0,38,0.00,,,0.00,meteohub,2013-05-08 18:53:00,
2013-05-08 13:58:00,83.5,55.2,-100.00,SSW,197,4.0,9.0,38,0.00,,,0.00,meteohub,2013-05-08 18:58:00,
2013-05-08 14:03:00,82.8,54.5,-100.00,South,190,4.0,13.0,38,0.00,,,0.00,meteohub,2013-05-08 19:03:00,
2013-05-08 14:08:00,82.9,53.2,-100.00,SW,219,2.0,13.0,36,0.00,,,0.00,meteohub,2013-05-08 19:08:00,
2013-05-08 14:13:00,83.5,54.5,-100.00,SW,218,0.0,13.0,37,0.00,,,0.00,meteohub,2013-05-08 19:13:00,
2013-05-08 14:18:00,83.8,54.0,-100.00,SW,214,2.0,10.0,36,0.00,,,0.00,meteohub,2013-05-08 19:18:00,
2013-05-08 14:23:00,82.9,54.7,-100.00,ESE,111,1.0,9.0,38,0.00,,,0.00,meteohub,2013-05-08 19:23:00,
2013-05-08 14:28:00,82.8,54.5,-100.00,SE,130,1.0,11.0,38,0.00,,,0.00,meteohub,2013-05-08 19:28:00,
2013-05-08 14:33:00,82.0,55.4,-100.00,South,169,0.0,11.0,40,0.00,,,0.00,meteohub,2013-05-08 19:33:00,
2013-05-08 14:38:00,81.5,55.6,-100.00,ESE,108,2.0,11.0,41,0.00,,,0.00,meteohub,2013-05-08 19:38:00,
2013-05-08 14:43:00,81.3,54.7,-100.00,ESE,117,2.0,6.0,40,0.00,,,0.00,meteohub,2013-05-08 19:43:00,
2013-05-08 14:48:00,81.0,55.8,-100.00,ESE,111,1.0,6.0,42,0.00,,,0.00,meteohub,2013-05-08 19:48:00,
2013-05-08 14:53:00,81.3,54.7,-100.00,ESE,115,3.0,6.0,40,0.00,,,0.00,meteohub,2013-05-08 19:53:00,
2013-05-08 14:58:00,81.1,54.5,-100.00,SSE,150,0.0,7.0,40,0.00,,,0.00,meteohub,2013-05-08 19:58:00,
2013-05-08 15:03:00,81.3,56.1,-100.00,ESE,114,0.0,7.0,42,0.00,,,0.00,meteohub,2013-05-08 20:03:00,
2013-05-08 15:09:00,81.5,54.9,-100.00,ESE,111,0.0,7.0,40,0.00,,,0.00,meteohub,2013-05-08 20:09:00,
2013-05-08 15:14:00,81.5,56.1,-100.00,SSW,205,0.0,7.0,42,0.00,,,0.00,meteohub,2013-05-08 20:14:00,
2013-05-08 15:19:00,80.8,53.6,-100.00,South,173,0.0,4.0,39,0.00,,,0.00,meteohub,2013-05-08 20:19:00,
2013-05-08 15:24:00,80.2,53.8,-100.00,SSE,165,0.0,6.0,40,0.00,,,0.00,meteohub,2013-05-08 20:24:00,
2013-05-08 15:29:00,80.4,55.9,-100.00,SW,220,2.0,6.0,43,0.00,,,0.00,meteohub,2013-05-08 20:29:00,
2013-05-08 15:34:00,80.4,54.0,-100.00,SSW,210,4.0,6.0,40,0.00,,,0.00,meteohub,2013-05-08 20:34:00,
2013-05-08 15:39:00,80.8,54.9,-100.00,SW,223,0.0,5.0,41,0.00,,,0.00,meteohub,2013-05-08 20:39:00,
2013-05-08 15:44:00,81.0,54.3,-100.00,SW,230,0.0,6.0,40,0.00,,,0.00,meteohub,2013-05-08 20:44:00,
2013-05-08 15:49:00,80.8,54.9,-100.00,SW,215,0.0,9.0,41,0.00,,,0.00,meteohub,2013-05-08 20:49:00,
2013-05-08 15:54:00,80.4,54.5,-100.00,SSW,213,0.0,9.0,41,0.00,,,0.00,meteohub,2013-05-08 20:54:00,
2013-05-08 15:59:00,80.4,55.2,-100.00,SSW,209,0.0,9.0,42,0.00,,,0.00,meteohub,2013-05-08 20:59:00,
2013-05-08 16:04:00,80.8,56.1,-100.00,SW,217,3.0,5.0,43,0.00,,,0.00,meteohub,2013-05-08 21:04:00,
2013-05-08 16:09:00,80.8,56.1,-100.00,SW,221,0.0,5.0,43,0.00,,,0.00,meteohub,2013-05-08 21:09:00,
2013-05-08 16:14:00,80.2,56.3,-100.00,SSW,207,0.0,5.0,44,0.00,,,0.00,meteohub,2013-05-08 21:14:00,
2013-05-08 16:19:00,80.1,55.6,-100.00,SSW,207,0.0,5.0,43,0.00,,,0.00,meteohub,2013-05-08 21:19:00,
2013-05-08 16:24:00,79.7,54.0,-100.00,SSW,213,0.0,2.0,41,0.00,,,0.00,meteohub,2013-05-08 21:24:00,
2013-05-08 16:29:00,79.5,53.1,-100.00,SSW,195,0.0,7.0,40,0.00,,,0.00,meteohub,2013-05-08 21:29:00,
2013-05-08 16:34:00,79.9,54.7,-100.00,SSW,207,1.0,8.0,42,0.00,,,0.00,meteohub,2013-05-08 21:34:00,
2013-05-08 16:39:00,79.7,55.2,-100.00,SW,227,5.0,8.0,43,0.00,,,0.00,meteohub,2013-05-08 21:39:00,
2013-05-08 16:44:00,79.9,54.1,-100.00,SW,234,6.0,7.0,41,0.00,,,0.00,meteohub,2013-05-08 21:44:00,
2013-05-08 16:49:00,79.9,55.4,-100.00,SSW,211,0.0,10.0,43,0.00,,,0.00,meteohub,2013-05-08 21:49:00,
2013-05-08 16:54:00,79.3,55.6,-100.00,SW,214,5.0,11.0,44,0.00,,,0.00,meteohub,2013-05-08 21:54:00,
2013-05-08 16:59:00,78.8,54.5,-100.00,SW,217,0.0,11.0,43,0.00,,,0.00,meteohub,2013-05-08 21:59:00,
2013-05-08 17:04:00,78.6,55.6,-100.00,SW,226,0.0,11.0,45,0.00,,,0.00,meteohub,2013-05-08 22:04:00,
2013-05-08 17:09:00,77.7,57.6,-100.00,SW,230,3.0,9.0,50,0.00,,,0.00,meteohub,2013-05-08 22:09:00,
2013-05-08 17:14:00,76.1,58.3,-100.00,SW,219,0.0,7.0,54,0.00,,,0.00,meteohub,2013-05-08 22:14:00,
2013-05-08 17:19:00,72.9,58.1,-100.00,SSW,196,0.0,10.0,60,0.00,,,0.00,meteohub,2013-05-08 22:19:00,
2013-05-08 17:24:00,70.9,58.5,-100.00,SSW,207,11.0,11.0,65,0.01,,,0.01,meteohub,2013-05-08 22:24:00,
2013-05-08 17:29:00,70.0,58.5,-100.00,SW,221,5.0,11.0,67,0.02,,,0.02,meteohub,2013-05-08 22:29:00,
2013-05-08 17:34:00,69.6,58.6,-100.00,WSW,238,3.0,15.0,68,0.02,,,0.02,meteohub,2013-05-08 22:34:00,
2013-05-08 17:39:00,69.3,59.5,-100.00,SW,220,0.0,15.0,71,0.02,,,0.02,meteohub,2013-05-08 22:39:00,
2013-05-08 17:44:00,68.5,59.5,-100.00,SW,220,0.0,15.0,73,0.02,,,0.02,meteohub,2013-05-08 22:44:00,
2013-05-08 17:49:00,68.2,59.5,-100.00,SW,220,0.0,15.0,74,0.02,,,0.02,meteohub,2013-05-08 22:49:00,
2013-05-08 17:54:00,68.2,59.5,-100.00,SW,220,0.0,5.0,74,0.02,,,0.02,meteohub,2013-05-08 22:54:00,
2013-05-08 17:59:00,68.4,60.4,-100.00,SW,220,0.0,1.0,76,0.02,,,0.02,meteohub,2013-05-08 22:59:00,
2013-05-08 18:04:00,68.4,60.4,-100.00,SW,219,0.0,0.0,76,0.02,,,0.02,meteohub,2013-05-08 23:04:00,
2013-05-08 18:09:00,68.4,59.7,-100.00,SW,220,0.0,0.0,74,0.02,,,0.02,meteohub,2013-05-08 23:09:00,
2013-05-08 18:14:00,68.7,60.4,-100.00,SW,220,0.0,0.0,75,0.02,,,0.02,meteohub,2013-05-08 23:14:00,
2013-05-08 18:19:00,68.7,60.4,-100.00,SW,219,0.0,0.0,75,0.02,,,0.02,meteohub,2013-05-08 23:19:00,
2013-05-08 18:24:00,68.9,60.3,-100.00,SW,220,0.0,0.0,74,0.01,,,0.02,meteohub,2013-05-08 23:24:00,
2013-05-08 18:29:00,69.1,60.8,-100.00,SW,220,0.0,0.0,75,0.00,,,0.02,meteohub,2013-05-08 23:29:00,
2013-05-08 18:34:00,69.1,60.4,-100.00,SW,219,0.0,0.0,74,0.00,,,0.02,meteohub,2013-05-08 23:34:00,
2013-05-08 18:39:00,69.1,60.4,-100.00,South,175,0.0,0.0,74,0.00,,,0.02,meteohub,2013-05-08 23:39:00,
2013-05-08 18:44:00,68.5,61.3,-100.00,ESE,113,0.0,1.0,78,0.00,,,0.02,meteohub,2013-05-08 23:44:00,
2013-05-08 18:49:00,67.8,60.6,-100.00,ESE,114,0.0,3.0,78,0.00,,,0.02,meteohub,2013-05-08 23:49:00,
2013-05-08 18:54:00,67.8,60.6,-100.00,ESE,114,0.0,3.0,78,0.00,,,0.02,meteohub,2013-05-08 23:54:00,
2013-05-08 18:59:00,67.8,60.6,-100.00,ESE,114,0.0,3.0,78,0.00,,,0.02,meteohub,2013-05-08 23:59:00,
2013-05-08 19:04:00,67.6,60.6,-100.00,ESE,114,0.0,1.0,78,0.00,,,0.02,meteohub,2013-05-09 00:04:00,
2013-05-08 19:09:00,67.5,60.1,-100.00,ESE,109,1.0,2.0,77,0.00,,,0.00,meteohub,2013-05-09 00:09:00,
2013-05-08 19:14:00,67.3,59.9,-100.00,ESE,110,0.0,2.0,77,0.00,,,0.00,meteohub,2013-05-09 00:14:00,
2013-05-08 19:19:00,66.9,59.5,-100.00,ESE,110,0.0,4.0,77,0.00,,,0.00,meteohub,2013-05-09 00:19:00,
2013-05-08 19:24:00,66.6,59.5,-100.00,ESE,110,0.0,4.0,78,0.00,,,0.00,meteohub,2013-05-09 00:24:00,
2013-05-08 19:29:00,66.4,59.4,-100.00,ESE,110,0.0,0.0,78,0.00,,,0.00,meteohub,2013-05-09 00:29:00,
2013-05-08 19:35:00,66.2,59.2,-100.00,ESE,110,0.0,0.0,78,0.00,,,0.00,meteohub,2013-05-09 00:35:00,
2013-05-08 19:40:00,66.0,59.0,-100.00,ESE,109,0.0,1.0,78,0.00,,,0.00,meteohub,2013-05-09 00:40:00,
2013-05-08 19:45:00,65.8,59.2,-100.00,ESE,109,0.0,1.0,79,0.00,,,0.00,meteohub,2013-05-09 00:45:00,
2013-05-08 19:50:00,65.7,59.0,-100.00,ESE,109,0.0,1.0,79,0.00,,,0.00,meteohub,2013-05-09 00:50:00,
2013-05-08 19:55:00,65.5,58.8,-100.00,ESE,109,0.0,0.0,79,0.00,,,0.00,meteohub,2013-05-09 00:55:00,
2013-05-08 20:00:00,65.3,58.6,-100.00,ESE,109,0.0,0.0,79,0.00,,,0.00,meteohub,2013-05-09 01:00:00,
2013-05-08 20:05:00,65.1,58.5,-100.00,ESE,109,0.0,0.0,79,0.00,,,0.00,meteohub,2013-05-09 01:05:00,
2013-05-08 20:10:00,64.9,58.6,-100.00,ESE,109,0.0,0.0,80,0.00,,,0.00,meteohub,2013-05-09 01:10:00,
2013-05-08 20:15:00,64.8,58.5,-100.00,ESE,109,0.0,0.0,80,0.00,,,0.00,meteohub,2013-05-09 01:15:00,
2013-05-08 20:20:00,64.8,58.5,-100.00,ESE,109,0.0,0.0,80,0.00,,,0.00,meteohub,2013-05-09 01:20:00,
2013-05-08 20:25:00,64.6,58.6,-100.00,ESE,109,0.0,0.0,81,0.00,,,0.00,meteohub,2013-05-09 01:25:00,
2013-05-08 20:30:00,64.6,58.6,-100.00,ESE,109,0.0,0.0,81,0.00,,,0.00,meteohub,2013-05-09 01:30:00,
2013-05-08 20:35:00,64.8,58.5,-100.00,ESE,109,0.0,1.0,80,0.00,,,0.00,meteohub,2013-05-09 01:35:00,
2013-05-08 20:40:00,64.6,58.3,-100.00,ESE,109,0.0,1.0,80,0.00,,,0.00,meteohub,2013-05-09 01:40:00,
2013-05-08 20:45:00,64.2,58.3,-100.00,ESE,109,0.0,0.0,81,0.00,,,0.00,meteohub,2013-05-09 01:45:00,
2013-05-08 20:50:00,64.0,58.1,-100.00,ESE,109,0.0,0.0,81,0.00,,,0.00,meteohub,2013-05-09 01:50:00,
2013-05-08 20:55:00,64.0,58.1,-100.00,ESE,109,0.0,0.0,81,0.00,,,0.00,meteohub,2013-05-09 01:55:00,
2013-05-08 21:00:00,64.2,58.3,-100.00,ESE,109,0.0,1.0,81,0.00,,,0.00,meteohub,2013-05-09 02:00:00,
2013-05-08 21:05:00,64.2,57.9,-100.00,ESE,109,0.0,1.0,80,0.00,,,0.00,meteohub,2013-05-09 02:05:00,
2013-05-08 21:10:00,64.0,58.1,-100.00,ESE,109,0.0,1.0,81,0.00,,,0.00,meteohub,2013-05-09 02:10:00,
2013-05-08 21:15:00,63.9,57.9,-100.00,ESE,109,0.0,0.0,81,0.00,,,0.00,meteohub,2013-05-09 02:15:00,
2013-05-08 21:20:00,63.7,57.7,-100.00,ESE,109,0.0,0.0,81,0.00,,,0.00,meteohub,2013-05-09 02:20:00,
2013-05-08 21:25:00,63.5,57.6,-100.00,ESE,109,0.0,0.0,81,0.00,,,0.00,meteohub,2013-05-09 02:25:00,
2013-05-08 21:30:00,63.3,57.7,-100.00,ESE,109,0.0,0.0,82,0.00,,,0.00,meteohub,2013-05-09 02:30:00,
2013-05-08 21:35:00,63.1,57.6,-100.00,ESE,109,0.0,0.0,82,0.00,,,0.00,meteohub,2013-05-09 02:35:00,
2013-05-08 21:40:00,63.1,57.2,-100.00,ESE,109,0.0,0.0,81,0.00,,,0.00,meteohub,2013-05-09 02:40:00,
2013-05-08 21:45:00,63.3,57.4,-100.00,ESE,109,0.0,0.0,81,0.00,,,0.00,meteohub,2013-05-09 02:45:00,
2013-05-08 21:50:00,63.5,57.2,-100.00,ESE,109,0.0,1.0,80,0.00,,,0.00,meteohub,2013-05-09 02:50:00,
2013-05-08 21:55:00,63.5,56.8,-100.00,ESE,109,0.0,1.0,79,0.00,,,0.00,meteohub,2013-05-09 02:55:00,
2013-05-08 22:00:00,63.5,56.8,-100.00,ESE,109,0.0,1.0,79,0.00,,,0.00,meteohub,2013-05-09 03:00:00,
2013-05-08 22:05:00,63.3,56.7,-100.00,ESE,109,0.0,0.0,79,0.00,,,0.00,meteohub,2013-05-09 03:05:00,
2013-05-08 22:10:00,63.5,56.8,-100.00,ESE,107,0.0,1.0,79,0.00,,,0.00,meteohub,2013-05-09 03:10:00,
2013-05-08 22:15:00,63.3,56.3,-100.00,ESE,108,0.0,1.0,78,0.00,,,0.00,meteohub,2013-05-09 03:15:00,
2013-05-08 22:20:00,63.5,56.5,-100.00,ESE,107,0.0,1.0,78,0.00,,,0.00,meteohub,2013-05-09 03:20:00,
2013-05-08 22:25:00,63.3,56.3,-100.00,ESE,108,0.0,1.0,78,0.00,,,0.00,meteohub,2013-05-09 03:25:00,
2013-05-08 22:30:00,63.1,56.1,-100.00,ESE,107,0.0,1.0,78,0.00,,,0.00,meteohub,2013-05-09 03:30:00,
2013-05-08 22:36:00,63.0,55.9,-100.00,ESE,107,0.0,1.0,78,0.00,,,0.00,meteohub,2013-05-09 03:36:00,
2013-05-08 22:41:00,62.8,55.8,-100.00,ESE,107,0.0,0.0,78,0.00,,,0.00,meteohub,2013-05-09 03:41:00,
2013-05-08 22:46:00,62.6,55.9,-100.00,ESE,108,0.0,1.0,79,0.00,,,0.00,meteohub,2013-05-09 03:46:00,
2013-05-08 22:51:00,62.4,55.8,-100.00,ESE,108,0.0,1.0,79,0.00,,,0.00,meteohub,2013-05-09 03:51:00,
2013-05-08 22:56:00,62.2,55.6,-100.00,ESE,107,0.0,1.0,79,0.00,,,0.00,meteohub,2013-05-09 03:56:00,
2013-05-08 23:06:00,61.9,55.6,-100.00,ESE,108,0.0,0.0,80,0.00,,,0.00,meteohub,2013-05-09 04:06:00,
2013-05-08 23:11:00,61.9,55.6,-100.00,ESE,107,0.0,0.0,80,0.00,,,0.00,meteohub,2013-05-09 04:11:00,
2013-05-08 23:16:00,61.9,55.6,-100.00,ESE,108,0.0,0.0,80,0.00,,,0.00,meteohub,2013-05-09 04:16:00,
2013-05-08 23:21:00,61.9,55.6,-100.00,ESE,107,0.0,0.0,80,0.00,,,0.00,meteohub,2013-05-09 04:21:00,
2013-05-08 23:26:00,61.7,55.4,-100.00,ESE,107,0.0,0.0,80,0.00,,,0.00,meteohub,2013-05-09 04:26:00,
2013-05-08 23:31:00,61.7,55.4,-100.00,ESE,108,0.0,0.0,80,0.00,,,0.00,meteohub,2013-05-09 04:31:00,
2013-05-08 23:36:00,61.9,55.6,-100.00,ESE,108,0.0,1.0,80,0.00,,,0.00,meteohub,2013-05-09 04:36:00,
2013-05-08 23:41:00,61.9,55.2,-100.00,ESE,108,0.0,1.0,79,0.00,,,0.00,meteohub,2013-05-09 04:41:00,
2013-05-08 23:46:00,61.7,55.0,-100.00,ESE,108,0.0,0.0,79,0.00,,,0.00,meteohub,2013-05-09 04:46:00,
2013-05-08 23:51:00,61.5,55.2,-100.00,ESE,107,0.0,0.0,80,0.00,,,0.00,meteohub,2013-05-09 04:51:00,
2013-05-08 23:56:00,61.3,55.0,-100.00,ESE,108,0.0,1.0,80,0.00,,,0.00,meteohub,2013-05-09 04:56:00,